[[{"header":{"parameterUnit":"m.s-1","parameterCategory":1,"la1":30.2991,"la2":30.254,"lo1":-89.0895,"lo2":-89.0444,"dy":0.0017,"dx":0.0017,"nx":28,"ny":28,"refTime":"2025-08-01T03:00:00:Z","depth":0,"parameterNumber":2,"parameterNumberName":"U-component_of_WINDS"},"data":[0,0,0,0,0,0,0,0,0,0,0,0,0,0,0,0,0,0,0,0,0,0,0,0,0,0,0,0,0,0,0,0,0,0,0,0,0,0,0,0,0,0,0,0,0,0,0,0,0,0,0,0,0,0,0,0,0,0,1.4793,1.4794,0,1.4911,1.4912,1.4914,1.4902,1.4901,1.4899,1.4897,1.5025,1.503,1.5035,0,0,0,0,0,0,0,0,0,0,0,0,0,1.4564,1.4568,1.4792,1.4794,1.4795,1.4911,1.4912,1.4914,1.4903,1.4901,1.4898,1.4896,1.5023,1.5029,1.5036,0,0,0,0,0,0,0,0,0,0,0,0,0,1.4671,1.4569,1.4792,1.4804,1.4806,1.491,1.4912,1.4914,1.4903,1.49,1.4898,1.4895,1.5021,1.5029,1.5036,1.5139,0,0,1.506,1.5063,0,0,0,0,0,0,0,0,1.4665,1.4679,1.48,1.4803,1.4806,1.4889,1.4879,1.499,1.4904,1.4866,1.4897,1.4894,1.4982,1.4993,1.5022,1.5145,1.5151,1.5061,1.5065,1.5069,1.5071,0,0,0,0,0,0,0,1.4657,1.4674,1.4839,1.4802,1.4805,1.4805,1.4817,1.49,1.4939,1.487,1.4869,1.4883,1.4983,1.5014,1.5025,1.5153,1.506,1.5067,1.5072,1.5075,1.5369,1.5372,0,0,0,0,0,0,1.4646,1.4668,1.4836,1.4843,1.4727,1.4811,1.4825,1.4865,1.4938,1.4946,1.4885,1.4882,1.5002,1.5016,1.5029,1.5155,1.5069,1.5076,1.508,1.5366,1.537,1.5373,0,0,0,0,0,0,1.4641,1.4661,1.4831,1.4755,1.4777,1.4818,1.4863,1.4869,1.49,1.4949,1.4957,1.4909,1.5001,1.5018,1.5112,1.516,1.5079,1.5086,1.5362,1.5367,1.5371,1.5408,0,0,0,0,0,0,1.4635,1.466,1.4697,1.4756,1.4781,1.491,1.4866,1.4873,1.4912,1.4909,1.4974,1.4982,1.5,1.5101,1.512,1.5169,1.5092,1.5358,1.5364,1.537,1.5403,1.5414,1.5423,0,0,0,0,0,1.4627,1.4704,1.4699,1.472,1.4829,1.4912,1.4927,1.4944,1.4916,1.4956,1.4988,1.498,1.5151,1.511,1.5132,1.5184,1.5355,1.5362,1.5369,1.5398,1.5412,1.5423,0,0,0,0,0,0,1.4652,1.4712,1.4707,1.4806,1.4854,1.491,1.4961,1.4957,1.5016,1.5011,1.5032,1.5047,1.5141,1.5172,1.5125,1.5288,1.525,1.5262,1.5264,1.5277,1.5287,1.5278,1.5099,0,0,0,0,0,1.4668,1.4729,1.4779,1.4862,1.4886,1.4919,1.4956,1.4965,1.5017,1.5038,1.5077,1.5129,1.5195,1.5238,1.5301,1.5407,1.5422,1.5454,1.5464,1.5472,1.5482,1.5542,1.5557,1.5397,1.5397,1.5396,0,0,1.4704,1.4745,1.4782,1.4868,1.4906,1.4971,1.4936,1.5006,1.5055,1.5049,1.5139,1.517,1.523,1.5331,1.5377,1.5359,1.553,1.5481,1.5487,1.5493,1.5551,1.5566,1.558,1.5402,1.5401,1.54,0,0,1.4802,1.4838,1.4911,1.495,1.5008,1.5029,1.5047,1.5104,1.5124,1.5214,1.5212,1.5272,1.5384,1.5427,1.5464,1.5579,1.5575,1.5599,1.5652,1.571,1.5723,1.5734,1.5776,1.5791,1.5609,1.5609,1.5609,0,1.484,1.4935,1.4949,1.502,1.5058,1.5054,1.5129,1.5167,1.5244,1.5272,1.525,1.5391,1.5431,1.5543,1.5571,1.56,1.5623,1.5592,1.5719,1.5731,1.5742,1.5782,1.5798,1.5612,1.5612,1.5611,1.5611,0,1.4979,1.5045,1.5098,1.5169,1.5214,1.5287,1.5314,1.5358,1.5364,1.5389,1.5482,1.553,1.5603,1.563,1.5637,1.5743,1.5731,1.5714,1.5676,1.5759,1.5798,1.5814,1.5616,1.5615,1.5614,1.5613,0,0,1.5096,1.5175,1.5194,1.5227,1.5291,1.5344,1.5417,1.5487,1.5525,1.5578,1.5642,1.5737,1.5722,1.5764,1.5775,1.5826,1.5917,1.5804,1.5806,1.5824,1.6038,1.6051,1.6068,1.5914,1.5917,1.5919,1.6034,0,1.5201,1.5328,1.5344,1.5458,1.5521,1.5518,1.5583,1.563,1.5656,1.5714,1.5743,1.5811,1.5785,1.5811,1.5861,1.5895,1.596,1.5887,1.5975,1.5978,1.596,1.6089,1.6102,1.6208,1.6049,1.6051,1.6053,0,1.534,1.5396,1.5516,1.5572,1.5599,1.5656,1.5722,1.5777,1.5832,1.5847,1.5894,1.5899,1.5978,1.5936,1.6045,1.5995,1.6032,1.6055,1.6059,1.6069,1.6021,1.6103,1.6242,1.6258,1.6077,1.6075,1.6073,0,1.5415,1.552,1.5605,1.5634,1.5701,1.5742,1.5772,1.5824,1.5865,1.5923,1.5951,1.6018,1.6056,1.6109,1.6133,1.61,1.6242,1.6202,1.6259,1.6258,1.6289,1.6287,1.6437,1.6312,1.6312,1.6311,1.6311,0,1.5531,1.5605,1.564,1.5692,1.5776,1.5794,1.5877,1.5906,1.5953,1.6013,1.6015,1.6072,1.6101,1.6163,1.6183,1.6271,1.6288,1.6304,1.6309,1.6304,1.6302,1.6329,1.6323,1.6316,1.6315,1.6314,1.6313,0,1.5628,1.5654,1.5747,1.5803,1.5819,1.5879,1.5928,1.598,1.6005,1.6081,1.61,1.6141,1.6214,1.6243,1.6333,1.6347,1.6449,1.6447,1.643,1.6431,1.6487,1.6481,1.666,1.6685,1.6543,1.6544,1.6545,0,1.5701,1.5757,1.5819,1.5858,1.589,1.5953,1.5995,1.6016,1.606,1.6127,1.6172,1.6245,1.6304,1.6421,1.646,1.6529,1.653,1.6588,1.6541,1.6535,1.6532,1.6529,1.6535,1.6597,1.6598,1.66,1.66,0,1.5827,1.5837,1.5896,1.596,1.601,1.6062,1.6112,1.6145,1.6175,1.6224,1.6298,1.6343,1.6435,1.6508,1.6579,1.6613,1.6613,1.6615,1.6632,1.6628,1.6616,1.6624,1.6454,1.6611,1.661,1.6609,1.6609,1.6608,1.5915,1.5965,1.6017,1.6083,1.6123,1.6171,1.6223,1.6254,1.6315,1.6389,1.6399,1.6478,1.6534,1.6629,1.6666,1.673,1.6716,1.674,1.6747,1.6752,1.6756,1.6605,1.6744,1.6743,1.6743,1.6743,1.6743,0,1.6042,1.6075,1.6136,1.6206,1.6258,1.6251,1.6307,1.6353,1.6422,1.6472,1.653,1.6616,1.6686,1.673,1.6802,1.6845,1.6847,1.6864,1.6861,1.6869,1.6765,1.6743,1.6861,1.6861,1.6861,1.6861,1.6861,1.6861,1.6114,1.62,1.6216,1.6322,1.6356,1.6432,1.6465,1.6509,1.655,1.6645,1.6703,1.673,1.6779,1.6855,1.692,1.6931,1.6958,1.6976,1.6986,1.6889,1.6876,1.6865,1.6845,1.6981,1.6981,1.7085,1.7086,1.7087]},{"header":{"parameterUnit":"m.s-1","parameterCategory":1,"la1":30.2991,"la2":30.254,"lo1":-89.0895,"lo2":-89.0444,"dy":0.0017,"dx":0.0017,"nx":28,"ny":28,"refTime":"2025-08-01T03:00:00:Z","depth":0,"parameterNumber":3,"parameterNumberName":"V-component_of_WINDS"},"data":[0,0,0,0,0,0,0,0,0,0,0,0,0,0,0,0,0,0,0,0,0,0,0,0,0,0,0,0,0,0,0,0,0,0,0,0,0,0,0,0,0,0,0,0,0,0,0,0,0,0,0,0,0,0,0,0,0,0,1.3784,1.3786,0,1.398,1.3982,1.3984,1.3993,1.3991,1.3988,1.3986,1.4188,1.4196,1.4203,0,0,0,0,0,0,0,0,0,0,0,0,0,1.3413,1.342,1.3783,1.3786,1.3788,1.3979,1.3982,1.3985,1.3993,1.399,1.3988,1.3985,1.4186,1.4195,1.4204,0,0,0,0,0,0,0,0,0,0,0,0,0,1.3588,1.3422,1.3783,1.3816,1.382,1.3979,1.3982,1.3985,1.3994,1.399,1.3987,1.3984,1.4183,1.4194,1.4205,1.4344,0,0,1.4239,1.4244,0,0,0,0,0,0,0,0,1.3578,1.3602,1.3808,1.3814,1.3819,1.3958,1.3926,1.4106,1.3995,1.3928,1.3986,1.3982,1.4115,1.4131,1.4176,1.4354,1.4362,1.424,1.4247,1.4252,1.4255,0,0,0,0,0,0,0,1.3566,1.3594,1.3861,1.3811,1.3818,1.3819,1.384,1.396,1.4039,1.3934,1.3935,1.3958,1.4117,1.4165,1.4181,1.4365,1.424,1.425,1.4257,1.4262,1.466,1.4664,0,0,0,0,0,0,1.3548,1.3583,1.3855,1.3867,1.3688,1.3829,1.3852,1.3917,1.4037,1.4052,1.396,1.3957,1.4147,1.4167,1.4188,1.4354,1.4252,1.4263,1.4269,1.4657,1.4661,1.4665,0,0,0,0,0,0,1.354,1.3572,1.3847,1.3726,1.3761,1.3839,1.3912,1.3923,1.3971,1.4057,1.4071,1.3995,1.4145,1.4172,1.4304,1.4362,1.4268,1.4278,1.4652,1.4658,1.4663,1.4691,0,0,0,0,0,0,1.3529,1.3569,1.3624,1.3727,1.3767,1.3961,1.3915,1.3929,1.399,1.3988,1.4094,1.4108,1.4145,1.4287,1.4315,1.4375,1.4287,1.4647,1.4655,1.4661,1.4686,1.4697,1.4707,0,0,0,0,0,1.3516,1.3626,1.3627,1.366,1.3838,1.3964,1.3987,1.4027,1.3995,1.405,1.4104,1.4105,1.4351,1.43,1.4332,1.4397,1.4644,1.4653,1.4661,1.4681,1.4695,1.4707,0,0,0,0,0,0,1.3531,1.364,1.3643,1.3789,1.3867,1.3966,1.4037,1.4042,1.4131,1.4125,1.4171,1.4194,1.4324,1.4374,1.4316,1.4534,1.4493,1.4509,1.4497,1.4512,1.4522,1.4507,1.4296,0,0,0,0,0,1.3551,1.3645,1.3736,1.3856,1.3895,1.3958,1.4016,1.4038,1.4121,1.4155,1.4219,1.4299,1.4394,1.4456,1.4548,1.4692,1.4713,1.4752,1.4763,1.4771,1.4784,1.4858,1.4875,1.4693,1.4693,1.4693,0,0,1.3594,1.3665,1.3722,1.386,1.3924,1.4018,1.3987,1.409,1.416,1.4171,1.4298,1.4347,1.4439,1.4576,1.464,1.4622,1.4838,1.4782,1.4788,1.4797,1.4869,1.4886,1.4901,1.4699,1.4698,1.4697,0,0,1.372,1.3785,1.3889,1.3952,1.4047,1.4087,1.4112,1.4209,1.4241,1.4369,1.4377,1.4461,1.4625,1.4688,1.4742,1.4884,1.4886,1.4913,1.497,1.5041,1.5055,1.5068,1.5115,1.5132,1.4925,1.4925,1.4925,0,1.3761,1.3905,1.3943,1.4044,1.4103,1.4114,1.4219,1.4278,1.4398,1.4437,1.4415,1.4616,1.468,1.4828,1.4862,1.4907,1.4934,1.4901,1.505,1.5064,1.5076,1.5121,1.5139,1.4928,1.4927,1.4927,1.4927,0,1.3949,1.4048,1.4121,1.4234,1.4301,1.4404,1.4455,1.4518,1.4533,1.4575,1.4702,1.4777,1.4882,1.492,1.4938,1.507,1.5055,1.5041,1.5,1.5095,1.5138,1.5156,1.4931,1.493,1.4929,1.4929,0,0,1.4093,1.4221,1.4247,1.4296,1.4398,1.4475,1.4576,1.4677,1.4728,1.4809,1.4893,1.5027,1.5013,1.5074,1.5098,1.5161,1.5263,1.5139,1.5142,1.5157,1.5408,1.5416,1.5436,1.5265,1.5268,1.5271,1.5399,0,1.4228,1.4408,1.4442,1.4598,1.4686,1.4695,1.4782,1.4853,1.4894,1.4974,1.5019,1.5112,1.5089,1.5124,1.5187,1.5237,1.5314,1.5229,1.5341,1.5344,1.5315,1.5459,1.547,1.5587,1.5416,1.5419,1.5421,0,1.4411,1.4493,1.4656,1.4741,1.4779,1.4858,1.4949,1.5027,1.5105,1.513,1.5194,1.521,1.5312,1.5266,1.5405,1.5346,1.5393,1.5424,1.5429,1.544,1.5388,1.5471,1.5626,1.5642,1.5449,1.5447,1.5445,0,1.4494,1.4646,1.4762,1.4804,1.4907,1.496,1.5006,1.5081,1.5137,1.5217,1.5253,1.5345,1.5395,1.5464,1.5502,1.5466,1.5636,1.5595,1.5657,1.5656,1.5693,1.569,1.5855,1.5727,1.5726,1.5726,1.5726,0,1.4641,1.474,1.48,1.4872,1.4981,1.5018,1.5125,1.5169,1.5235,1.5313,1.5327,1.5399,1.5446,1.5525,1.5555,1.5663,1.5686,1.5707,1.5713,1.5705,1.5702,1.5736,1.5728,1.5731,1.573,1.5729,1.5728,0,1.4754,1.4799,1.4925,1.501,1.5033,1.511,1.5182,1.525,1.5288,1.5386,1.5411,1.5472,1.5564,1.5609,1.5725,1.5745,1.5865,1.5868,1.5838,1.584,1.5899,1.5892,1.609,1.6116,1.5973,1.5974,1.5975,0,1.4843,1.4919,1.501,1.5062,1.5108,1.5193,1.5249,1.5287,1.5345,1.5436,1.5492,1.5584,1.5661,1.5807,1.5861,1.5948,1.5951,1.6014,1.5964,1.5951,1.5948,1.5942,1.5947,1.6023,1.6024,1.6025,1.6026,0,1.4996,1.5013,1.5093,1.518,1.5246,1.5317,1.5386,1.5428,1.5476,1.5539,1.5633,1.5692,1.5807,1.5897,1.5986,1.6031,1.6036,1.6041,1.6059,1.6051,1.6029,1.6038,1.586,1.6037,1.6036,1.6035,1.6034,1.6034,1.5098,1.5163,1.5236,1.5323,1.5378,1.5441,1.5507,1.5552,1.5631,1.5727,1.5744,1.5842,1.5913,1.6033,1.608,1.6155,1.6141,1.6169,1.6175,1.6181,1.6182,1.6017,1.6172,1.6172,1.6172,1.6172,1.6171,0,1.5248,1.5294,1.5374,1.5468,1.5536,1.5533,1.5607,1.5664,1.575,1.5815,1.5888,1.5993,1.6079,1.6136,1.6223,1.6272,1.6276,1.6293,1.6289,1.6298,1.6192,1.6166,1.6288,1.6288,1.6288,1.6288,1.6288,1.6288,1.5334,1.5443,1.5467,1.5602,1.5647,1.5742,1.5784,1.5841,1.5893,1.6008,1.6079,1.6115,1.6177,1.6266,1.6344,1.6358,1.6388,1.6405,1.6419,1.6319,1.6306,1.6295,1.627,1.6412,1.6412,1.6518,1.6519,1.652]}]]